#timestamp,LO_Frequency,Hit,StdDev 
1632927615.6,286046987.3,N
1632927635.4,286046989.5,N
1632927655.3,286046991.5,N
1632927675.1,286046990.3,N
1632927695.8,286046990.5,N
1632927715.7,286046991.3,N
1632927735.5,286046986.9,N
1632927755.4,286046991.3,N
1632927775.2,286046988.1,N
1632927795.0,286046987.1,Y
1632927795.9,286046987.1,P
1632927815.8,286046995.6,N
1632927835.6,286046994.0,N
1632927855.5,286046999.0,N
1632927875.3,286046997.3,N
1632927895.1,286046998.9,N
1632927915.9,286047001.6,N
1632927935.7,286047004.2,N
1632927955.5,286046999.7,N
1632927975.4,286046995.3,N
1632927995.2,286046995.4,N
1632928015.1,286047001.1,N
1632928016.0,286047001.1,N
1632928035.8,286047002.1,N
1632928055.6,286047003.5,N
1632928075.5,286047000.2,N
1632928095.3,286046996.7,N
1632928115.1,286046994.9,N
1632928135.9,286046994.1,N
1632928155.7,286046993.9,N
1632928175.6,286046991.6,N
1632928195.4,286046989.8,N
1632928215.2,286046991.2,N
1632928235.1,286046994.0,N
1632928236.0,286046994.0,N
1632928255.8,286046993.5,N
1632928275.6,286046992.4,N
1632928295.5,286046996.0,N
1632928315.3,286046997.7,N
1632928335.2,286046997.4,N
1632928355.9,286046995.6,N
1632928375.7,286046995.0,N
1632928395.6,286046993.9,N
1632928415.4,286046996.2,N
1632928435.2,286046996.1,N
1632928455.1,286046996.8,N
1632928456.0,286046996.8,N
1632928475.8,286046999.2,N
1632928495.7,286046999.1,N
1632928515.5,286046996.5,N
1632928535.3,286046996.8,N
1632928555.2,286046999.5,N
1632928575.0,286046995.7,N
1632928575.9,286046995.7,N
1632928595.8,286046994.1,N
1632928615.6,286046996.6,N
1632928635.4,286046996.7,N
1632928655.3,286046997.2,N
1632928675.1,286046999.1,N
1632928695.8,286046995.9,N
1632928715.7,286046993.3,N
1632928735.5,286046997.3,N
1632928755.4,286046997.1,N
1632928775.2,286046997.4,N
1632928795.0,286046999.6,N
1632928795.9,286046999.6,N
1632928815.8,286046999.4,N
1632928835.6,286046999.0,N
1632928855.5,286046999.4,N
1632928875.3,286047001.1,N
1632928895.1,286046999.0,N
1632928915.9,286046998.1,N
1632928935.7,286046998.9,N
1632928955.5,286046998.7,N
1632928975.4,286046995.2,N
1632928995.2,286046996.9,N
1632929015.1,286046998.2,N
1632929016.0,286046998.2,N
1632929035.8,286047000.9,N
1632929055.6,286047002.2,N
1632929075.5,286047002.4,N
1632929095.3,286047002.3,N
1632929115.2,286046999.3,N
1632929135.9,286046998.2,N
1632929155.7,286047000.1,N
1632929175.6,286046998.7,N
1632929195.4,286046998.6,N
1632929215.3,286047001.1,N
1632929235.1,286046998.8,N
1632929236.0,286046998.8,N
1632929255.8,286046999.9,N
1632929275.7,286047000.9,N
1632929295.5,286047000.2,N
1632929315.3,286046999.7,N
1632929335.2,286047003.7,N
1632929355.0,286047005.3,Y
1632929355.9,286047005.3,P
1632929375.8,286047006.4,N
1632929395.6,286047008.7,N
1632929415.4,286047009.1,N
1632929435.3,286047008.5,N
1632929455.1,286047004.7,N
1632929475.9,286047003.7,N
1632929495.7,286047004.3,N
1632929515.5,286047005.7,N
1632929535.4,286047003.5,N
1632929555.2,286047001.5,N
1632929575.0,286047003.7,N
1632929575.9,286047003.7,N
1632929595.8,286047001.5,N
1632929615.6,286047001.1,N
1632929635.5,286047000.1,N
1632929655.3,286047002.0,N
1632929675.1,286047004.3,N
1632929695.9,286047003.2,N
1632929715.7,286047000.9,N
1632929735.5,286046998.8,N
1632929755.4,286047004.0,N
1632929775.2,286047004.2,N
1632929795.1,286047003.4,N
1632929796.0,286047003.4,N
1632929815.8,286047004.9,N
1632929835.6,286047003.3,N
1632929855.5,286047008.6,Y
1632929875.3,286047002.9,P
1632929895.1,286047003.2,P
1632929915.9,286047005.7,P
1632929935.7,286047007.2,Y
1632929955.6,286047003.8,P
1632929975.4,286047000.5,P
1632929995.2,286046995.3,P
1632930015.1,286046997.3,N
1632930016.0,286046997.3,N
1632930035.8,286046999.4,N
1632930055.7,286046999.3,N
1632930075.5,286046995.1,N
1632930095.3,286046994.0,N
1632930115.2,286046996.1,N
1632930135.0,286046997.1,N
1632930135.9,286046997.1,N
1632930155.7,286046997.0,N
1632930175.6,286046996.9,N
1632930195.4,286046996.9,N
1632930215.3,286046997.1,N
1632930235.1,286046997.3,N
1632930236.0,286046997.3,N
1632930255.8,286046999.6,N
1632930275.7,286047000.6,N
1632930295.5,286046998.1,N
1632930315.3,286046999.4,N
1632930335.2,286046998.9,N
1632930355.0,286046999.2,N
1632930355.9,286046999.2,N
1632930375.8,286046999.3,N
1632930395.6,286047000.7,N
1632930415.4,286046995.2,N
1632930435.3,286046995.1,N
1632930455.1,286046995.4,N
1632930475.8,286046997.6,N
1632930495.7,286046997.0,N
1632930515.5,286046999.6,N
1632930535.4,286046996.9,N
1632930555.2,286046999.3,N
1632930575.0,286046998.6,N
1632930575.9,286046998.6,N
1632930595.8,286047000.5,N
1632930615.6,286047000.9,N
1632930635.5,286046997.0,N
1632930655.3,286046996.3,N
1632930675.1,286046996.3,N
1632930695.9,286046999.9,N
1632930715.7,286046999.0,N
1632930735.5,286046998.7,N
1632930755.4,286046998.6,N
1632930775.2,286046998.5,N
1632930795.1,286047002.3,N
1632930796.0,286047002.3,N
1632930815.8,286047000.1,N
1632930835.6,286047001.8,N
1632930855.5,286047002.1,N
1632930875.3,286047004.1,N
1632930895.1,286047003.7,N
1632930915.9,286047001.5,N
1632930935.7,286047001.6,N
1632930955.6,286047003.4,N
1632930975.4,286047005.4,N
1632930995.2,286047003.0,N
1632931015.1,286047003.9,N
1632931016.0,286047011.9,Y
1632931035.8,286047001.3,P
1632931055.6,286047004.0,P
1632931075.5,286047003.6,N
1632931095.3,286047003.0,N
1632931115.2,286047005.9,Y
1632931135.9,286047000.1,P
1632931155.7,286047004.1,P
1632931175.6,286047003.9,N
1632931195.4,286047002.1,N
